This is the latest recevied weather packets stored in our database for station/object W4ZHA. If no packets are shown the sender has not sent any weather packets the latest 10 day(s).
| Time | Temp. | Humidity | Pressure | Rain* | Wind** | Luminosity | Snow |
|---|---|---|---|---|---|---|---|
| 1778174389 | 17.78° C | 67% | 1014.4 hPa | 0 mm | - | 259 W/m² | - |
| 1778174084 | 17.22° C | 64% | 1014.4 hPa | 0 mm | - | 254 W/m² | - |
| 1778173782 | 17.78° C | 65% | 1014.4 hPa | 0 mm | - | 309 W/m² | - |
| 1778173478 | 17.22° C | 65% | 1014.4 hPa | 0 mm | - | 302 W/m² | - |
| 1778173175 | 16.67° C | 66% | 1014.4 hPa | 0 mm | - | 308 W/m² | - |
| 1778172871 | 16.67° C | 66% | 1014.4 hPa | 0 mm | - | 285 W/m² | - |
| 1778172566 | 17.22° C | 65% | 1014.4 hPa | 0 mm | - | 275 W/m² | - |
| 1778172264 | 16.67° C | 67% | 1014.4 hPa | 0 mm | - | 283 W/m² | - |
| 1778171961 | 17.22° C | 66% | 1014.4 hPa | 0 mm | - | 243 W/m² | - |
| 1778171658 | 16.67° C | 66% | 1014.4 hPa | 0 mm | - | 329 W/m² | - |
| 1778171355 | 16.67° C | 66% | 1014.4 hPa | 0 mm | - | 356 W/m² | - |
| 1778171050 | 16.67° C | 70% | 1014.4 hPa | 0 mm | - | 251 W/m² | - |
| 1778170748 | 16.11° C | 68% | 1014.4 hPa | 0 mm | - | 260 W/m² | - |
| 1778170444 | 15.56° C | 69% | 1014.8 hPa | 0 mm | - | 234 W/m² | - |
| 1778170141 | 15.56° C | 70% | 1014.4 hPa | 0 mm | - | 190 W/m² | - |
| 1778169836 | 15.56° C | 72% | 1014.8 hPa | 0 mm | - | 154 W/m² | - |
| 1778169533 | 15° C | 71% | 1014.8 hPa | 0 mm | - | 130 W/m² | - |
| 1778169229 | 15° C | 72% | 1014.4 hPa | 0 mm | - | 125 W/m² | - |
| 1778168925 | 15° C | 74% | 1014.4 hPa | 0 mm | - | 113 W/m² | - |
| 1778168623 | 15° C | 76% | 1014.4 hPa | 0 mm | - | 94 W/m² | - |
| 1778168320 | 15° C | 76% | 1014.4 hPa | 0 mm | - | 94 W/m² | - |
| 1778168016 | 14.44° C | 73% | 1014.4 hPa | 0 mm | - | 91 W/m² | - |
| 1778167713 | 15° C | 75% | 1014.8 hPa | 0 mm | - | 97 W/m² | - |
| 1778167409 | 14.44° C | 74% | 1014.4 hPa | 0 mm | - | 93 W/m² | - |
| 1778167105 | 14.44° C | 74% | 1014.4 hPa | 0 mm | - | 87 W/m² | - |
* Rain latest hour (hover to see other rain measurements)
** Current wind speed in m/s (hover to see current wind gust speed)